Time,TemperatureF,DewpointF,PressureIn,WindDirection,WindDirectionDegrees,WindSpeedMPH,WindSpeedGustMPH,Humidity,HourlyPrecipIn,Conditions,Clouds,dailyrainin,SolarRadiationWatts/m^2,SoftwareType,DateUTC
2013-04-04 00:02:00,40.0,23.0,-100.00,ENE,76,3.0,9.0,51,0.00,,,-99.99,0.000000,,2013-04-04 06:02:00,
2013-04-04 00:12:00,40.0,23.0,-100.00,ENE,76,3.0,9.0,51,0.00,,,-99.99,0.000000,,2013-04-04 06:12:00,
2013-04-04 00:22:00,40.0,23.0,-100.00,ENE,76,3.0,9.0,51,0.00,,,-99.99,0.000000,,2013-04-04 06:22:00,
2013-04-04 00:32:00,40.0,23.0,-100.00,ENE,76,3.0,9.0,51,0.00,,,-99.99,0.000000,,2013-04-04 06:32:00,
2013-04-04 01:02:00,39.0,25.0,-100.00,ENE,63,5.0,11.0,56,0.00,,,-99.99,0.000000,,2013-04-04 07:02:00,
2013-04-04 01:12:00,39.0,25.0,-100.00,ENE,63,5.0,11.0,56,0.00,,,-99.99,0.000000,,2013-04-04 07:12:00,
2013-04-04 01:22:00,39.0,25.0,-100.00,ENE,63,5.0,11.0,56,0.00,,,-99.99,0.000000,,2013-04-04 07:22:00,
2013-04-04 01:32:00,39.0,25.0,-100.00,ENE,63,5.0,11.0,56,0.00,,,-99.99,0.000000,,2013-04-04 07:32:00,
2013-04-04 02:02:00,37.0,23.0,-100.00,ENE,58,4.0,14.0,56,0.00,,,-99.99,0.000000,,2013-04-04 08:02:00,
2013-04-04 02:12:00,37.0,23.0,-100.00,ENE,58,4.0,14.0,56,0.00,,,-99.99,0.000000,,2013-04-04 08:12:00,
2013-04-04 02:22:00,37.0,23.0,-100.00,ENE,58,4.0,14.0,56,0.00,,,-99.99,0.000000,,2013-04-04 08:22:00,
2013-04-04 02:32:00,37.0,23.0,-100.00,ENE,58,4.0,14.0,56,0.00,,,-99.99,0.000000,,2013-04-04 08:32:00,
2013-04-04 03:02:00,36.0,18.0,-100.00,ENE,77,8.0,17.0,47,0.00,,,-99.99,0.000000,,2013-04-04 09:02:00,
2013-04-04 03:12:00,36.0,18.0,-100.00,ENE,77,8.0,17.0,47,0.00,,,-99.99,0.000000,,2013-04-04 09:12:00,
2013-04-04 03:22:00,36.0,18.0,-100.00,ENE,77,8.0,17.0,47,0.00,,,-99.99,0.000000,,2013-04-04 09:22:00,
2013-04-04 03:32:00,36.0,18.0,-100.00,ENE,77,8.0,17.0,47,0.00,,,-99.99,0.000000,,2013-04-04 09:32:00,
2013-04-04 04:03:00,34.0,18.0,-100.00,ENE,67,6.0,16.0,52,0.00,,,-99.99,0.000000,,2013-04-04 10:03:00,
2013-04-04 04:12:00,34.0,18.0,-100.00,ENE,67,6.0,16.0,52,0.00,,,-99.99,0.000000,,2013-04-04 10:12:00,
2013-04-04 04:23:00,34.0,18.0,-100.00,ENE,67,6.0,16.0,52,0.00,,,-99.99,0.000000,,2013-04-04 10:23:00,
2013-04-04 04:32:00,34.0,18.0,-100.00,ENE,67,6.0,16.0,52,0.00,,,-99.99,0.000000,,2013-04-04 10:32:00,
2013-04-04 05:02:00,32.0,23.0,-100.00,ENE,64,7.0,17.0,68,0.00,,,-99.99,0.000000,,2013-04-04 11:02:00,
2013-04-04 05:12:00,32.0,23.0,-100.00,ENE,64,7.0,17.0,68,0.00,,,-99.99,0.000000,,2013-04-04 11:12:00,
2013-04-04 05:22:00,32.0,23.0,-100.00,ENE,64,7.0,17.0,68,0.00,,,-99.99,0.000000,,2013-04-04 11:22:00,
2013-04-04 05:32:00,32.0,23.0,-100.00,ENE,64,7.0,17.0,68,0.00,,,-99.99,0.000000,,2013-04-04 11:32:00,
2013-04-04 06:02:00,30.0,24.0,-100.00,ENE,64,6.0,15.0,78,0.00,,,-99.99,0.000000,,2013-04-04 12:02:00,
2013-04-04 06:12:00,30.0,24.0,-100.00,ENE,64,6.0,15.0,78,0.00,,,-99.99,0.000000,,2013-04-04 12:12:00,
2013-04-04 06:22:00,30.0,24.0,-100.00,ENE,64,6.0,15.0,78,0.00,,,-99.99,0.000000,,2013-04-04 12:22:00,
2013-04-04 06:32:00,30.0,24.0,-100.00,ENE,64,6.0,15.0,78,0.00,,,-99.99,0.000000,,2013-04-04 12:32:00,
2013-04-04 07:02:00,29.0,25.0,-100.00,ENE,59,6.0,15.0,85,0.00,,,-99.99,0.000000,,2013-04-04 13:02:00,
2013-04-04 07:12:00,29.0,25.0,-100.00,ENE,59,6.0,15.0,85,0.00,,,-99.99,0.000000,,2013-04-04 13:12:00,
2013-04-04 07:22:00,29.0,25.0,-100.00,ENE,59,6.0,15.0,85,0.00,,,-99.99,0.000000,,2013-04-04 13:22:00,
2013-04-04 07:32:00,29.0,25.0,-100.00,ENE,59,6.0,15.0,85,0.00,,,-99.99,0.000000,,2013-04-04 13:32:00,
2013-04-04 08:02:00,30.0,27.0,-100.00,ENE,60,6.0,14.0,87,0.00,,,-99.99,0.000000,,2013-04-04 14:02:00,
2013-04-04 08:12:00,30.0,27.0,-100.00,ENE,60,6.0,14.0,87,0.00,,,-99.99,0.000000,,2013-04-04 14:12:00,
2013-04-04 08:22:00,30.0,27.0,-100.00,ENE,60,6.0,14.0,87,0.00,,,-99.99,0.000000,,2013-04-04 14:22:00,
2013-04-04 08:32:00,30.0,27.0,-100.00,ENE,60,6.0,14.0,87,0.00,,,-99.99,0.000000,,2013-04-04 14:32:00,
2013-04-04 09:02:00,31.0,27.0,-100.00,ENE,70,8.0,14.0,84,0.00,,,-99.99,0.000000,,2013-04-04 15:02:00,
2013-04-04 09:12:00,31.0,27.0,-100.00,ENE,70,8.0,14.0,84,0.00,,,-99.99,0.000000,,2013-04-04 15:12:00,
2013-04-04 09:22:00,31.0,27.0,-100.00,ENE,70,8.0,14.0,84,0.00,,,-99.99,0.000000,,2013-04-04 15:22:00,
2013-04-04 09:33:00,31.0,27.0,-100.00,ENE,70,8.0,14.0,84,0.00,,,-99.99,0.000000,,2013-04-04 15:33:00,
2013-04-04 10:03:00,33.0,27.0,-100.00,ENE,74,7.0,13.0,79,0.00,,,0.00,0.000000,,2013-04-04 16:03:00,
2013-04-04 10:12:00,33.0,27.0,-100.00,ENE,74,7.0,13.0,79,0.00,,,0.00,0.000000,,2013-04-04 16:12:00,
2013-04-04 10:23:00,33.0,27.0,-100.00,ENE,74,7.0,13.0,79,0.00,,,0.00,0.000000,,2013-04-04 16:23:00,
2013-04-04 10:32:00,33.0,27.0,-100.00,ENE,74,7.0,13.0,79,0.00,,,0.00,0.000000,,2013-04-04 16:32:00,
2013-04-04 11:02:00,40.0,28.0,-100.00,East,92,6.0,12.0,62,0.00,,,0.00,0.000000,,2013-04-04 17:02:00,
2013-04-04 11:13:00,40.0,28.0,-100.00,East,92,6.0,12.0,62,0.00,,,0.00,0.000000,,2013-04-04 17:13:00,
2013-04-04 11:22:00,40.0,28.0,-100.00,East,92,6.0,12.0,62,0.00,,,0.00,0.000000,,2013-04-04 17:22:00,
2013-04-04 11:32:00,40.0,28.0,-100.00,East,92,6.0,12.0,62,0.00,,,0.00,0.000000,,2013-04-04 17:32:00,
2013-04-04 12:02:00,44.0,28.0,-100.00,ESE,113,7.0,15.0,52,0.00,,,0.00,0.000000,,2013-04-04 18:02:00,
2013-04-04 12:12:00,44.0,28.0,-100.00,ESE,113,7.0,15.0,52,0.00,,,0.00,0.000000,,2013-04-04 18:12:00,
2013-04-04 12:22:00,44.0,28.0,-100.00,ESE,113,7.0,15.0,52,0.00,,,0.00,0.000000,,2013-04-04 18:22:00,
2013-04-04 12:32:00,44.0,28.0,-100.00,ESE,113,7.0,15.0,52,0.00,,,0.00,0.000000,,2013-04-04 18:32:00,
2013-04-04 13:02:00,46.0,27.0,-100.00,East,96,7.0,17.0,47,0.00,,,0.00,0.000000,,2013-04-04 19:02:00,
2013-04-04 13:12:00,46.0,27.0,-100.00,East,96,7.0,17.0,47,0.00,,,0.00,0.000000,,2013-04-04 19:12:00,
2013-04-04 13:22:00,46.0,27.0,-100.00,East,96,7.0,17.0,47,0.00,,,0.00,0.000000,,2013-04-04 19:22:00,
2013-04-04 13:32:00,46.0,27.0,-100.00,East,96,7.0,17.0,47,0.00,,,0.00,0.000000,,2013-04-04 19:32:00,
2013-04-04 14:03:00,49.0,28.0,-100.00,ESE,104,7.0,16.0,44,0.00,,,0.00,0.000000,,2013-04-04 20:03:00,
2013-04-04 14:12:00,49.0,28.0,-100.00,ESE,104,7.0,16.0,44,0.00,,,0.00,0.000000,,2013-04-04 20:12:00,
2013-04-04 14:22:00,49.0,28.0,-100.00,ESE,104,7.0,16.0,44,0.00,,,0.00,0.000000,,2013-04-04 20:22:00,
2013-04-04 14:32:00,49.0,28.0,-100.00,ESE,104,7.0,16.0,44,0.00,,,0.00,0.000000,,2013-04-04 20:32:00,
2013-04-04 15:02:00,52.0,29.0,-100.00,ESE,102,6.0,18.0,41,0.00,,,0.00,0.000000,,2013-04-04 21:02:00,
2013-04-04 15:12:00,52.0,29.0,-100.00,ESE,102,6.0,18.0,41,0.00,,,0.00,0.000000,,2013-04-04 21:12:00,
2013-04-04 15:22:00,52.0,29.0,-100.00,ESE,102,6.0,18.0,41,0.00,,,0.00,0.000000,,2013-04-04 21:22:00,
2013-04-04 15:32:00,52.0,29.0,-100.00,ESE,102,6.0,18.0,41,0.00,,,0.00,0.000000,,2013-04-04 21:32:00,
2013-04-04 16:03:00,53.0,29.0,-100.00,ESE,109,7.0,17.0,39,0.00,,,0.00,0.000000,,2013-04-04 22:03:00,
2013-04-04 16:12:00,53.0,29.0,-100.00,ESE,109,7.0,17.0,39,0.00,,,0.00,0.000000,,2013-04-04 22:12:00,
2013-04-04 16:22:00,53.0,29.0,-100.00,ESE,109,7.0,17.0,39,0.00,,,0.00,0.000000,,2013-04-04 22:22:00,
2013-04-04 16:32:00,53.0,29.0,-100.00,ESE,109,7.0,17.0,39,0.00,,,0.00,0.000000,,2013-04-04 22:32:00,
2013-04-04 17:02:00,52.0,28.0,-100.00,ESE,104,8.0,18.0,40,0.00,,,0.00,0.000000,,2013-04-04 23:02:00,
2013-04-04 17:12:00,52.0,28.0,-100.00,ESE,104,8.0,18.0,40,0.00,,,0.00,0.000000,,2013-04-04 23:12:00,
2013-04-04 17:22:00,52.0,28.0,-100.00,ESE,104,8.0,18.0,40,0.00,,,0.00,0.000000,,2013-04-04 23:22:00,
2013-04-04 17:32:00,52.0,28.0,-100.00,ESE,104,8.0,18.0,40,0.00,,,0.00,0.000000,,2013-04-04 23:32:00,
2013-04-04 18:02:00,52.0,28.0,-100.00,ESE,114,6.0,17.0,40,0.00,,,0.00,0.000000,,2013-04-05 00:02:00,
2013-04-04 18:12:00,52.0,28.0,-100.00,ESE,114,6.0,17.0,40,0.00,,,0.00,0.000000,,2013-04-05 00:12:00,
2013-04-04 18:22:00,52.0,28.0,-100.00,ESE,114,6.0,17.0,40,0.00,,,0.00,0.000000,,2013-04-05 00:22:00,
2013-04-04 18:32:00,52.0,28.0,-100.00,ESE,114,6.0,17.0,40,0.00,,,0.00,0.000000,,2013-04-05 00:32:00,
2013-04-04 19:02:00,51.0,28.0,-100.00,ESE,109,6.0,17.0,41,0.00,,,-99.99,0.000000,,2013-04-05 01:02:00,
2013-04-04 19:12:00,51.0,28.0,-100.00,ESE,109,6.0,17.0,41,0.00,,,-99.99,0.000000,,2013-04-05 01:12:00,
2013-04-04 19:22:00,51.0,28.0,-100.00,ESE,109,6.0,17.0,41,0.00,,,-99.99,0.000000,,2013-04-05 01:22:00,
2013-04-04 19:32:00,51.0,28.0,-100.00,ESE,109,6.0,17.0,41,0.00,,,-99.99,0.000000,,2013-04-05 01:32:00,
2013-04-04 20:02:00,50.0,29.0,-100.00,ESE,107,5.0,15.0,45,0.00,,,0.00,0.000000,,2013-04-05 02:02:00,
2013-04-04 20:12:00,50.0,29.0,-100.00,ESE,107,5.0,15.0,45,0.00,,,0.00,0.000000,,2013-04-05 02:12:00,
2013-04-04 20:22:00,50.0,29.0,-100.00,ESE,107,5.0,15.0,45,0.00,,,0.00,0.000000,,2013-04-05 02:22:00,
2013-04-04 20:32:00,50.0,29.0,-100.00,ESE,107,5.0,15.0,45,0.00,,,0.00,0.000000,,2013-04-05 02:32:00,
2013-04-04 21:02:00,48.0,30.0,-100.00,East,88,3.0,10.0,49,0.00,,,0.00,0.000000,,2013-04-05 03:02:00,
2013-04-04 21:12:00,48.0,30.0,-100.00,East,88,3.0,10.0,49,0.00,,,0.00,0.000000,,2013-04-05 03:12:00,
2013-04-04 21:22:00,48.0,30.0,-100.00,East,88,3.0,10.0,49,0.00,,,0.00,0.000000,,2013-04-05 03:22:00,
2013-04-04 21:32:00,48.0,30.0,-100.00,East,88,3.0,10.0,49,0.00,,,0.00,0.000000,,2013-04-05 03:32:00,
2013-04-04 22:02:00,47.0,30.0,-100.00,East,92,3.0,9.0,51,0.00,,,0.00,0.000000,,2013-04-05 04:02:00,
2013-04-04 22:12:00,47.0,30.0,-100.00,East,92,3.0,9.0,51,0.00,,,0.00,0.000000,,2013-04-05 04:12:00,
2013-04-04 22:22:00,47.0,30.0,-100.00,East,92,3.0,9.0,51,0.00,,,0.00,0.000000,,2013-04-05 04:22:00,
2013-04-04 22:32:00,47.0,30.0,-100.00,East,92,3.0,9.0,51,0.00,,,0.00,0.000000,,2013-04-05 04:32:00,
2013-04-04 23:02:00,47.0,31.0,-100.00,East,95,4.0,10.0,53,0.00,,,0.00,0.000000,,2013-04-05 05:02:00,
2013-04-04 23:12:00,47.0,31.0,-100.00,East,95,4.0,10.0,53,0.00,,,0.00,0.000000,,2013-04-05 05:12:00,
2013-04-04 23:22:00,47.0,31.0,-100.00,East,95,4.0,10.0,53,0.00,,,0.00,0.000000,,2013-04-05 05:22:00,
2013-04-04 23:31:00,47.0,31.0,-100.00,East,95,4.0,10.0,53,0.00,,,0.00,0.000000,,2013-04-05 05:31:00,